Sivas, Turkey

6:23 AM +03 on April 25, 2018 (GMT +0300)
Sivas

Weather History for LTAR - July, 2013

Change the Weather History Date:

Tuesday, July 30, 2013

  Actual Average Record
Temperature  
Mean Temperature 62 °F -  
Max Temperature 77 °F 82 °F - ()
Min Temperature 46 °F 52 °F - ()
Degree Days  
Heating Degree Days 3    
Growing Degree Days 12 (Base 50)    
Moisture  
Dew Point 38 °F    
Average Humidity 54    
Maximum Humidity 87    
Minimum Humidity 11    
Precipitation  
Precipitation 0.00 in 0.01 in - ()
Sea Level Pressure  
Sea Level Pressure 30.05 in    
Wind  
Wind Speed 7 mph ()    
Max Wind Speed 21 mph    
Max Gust Speed 32 mph    
Visibility 7.0 miles    
Events      
T = Trace of Precipitation, MM = Missing Value Source: Averaged Metar Reports

Daily Weather History Graph

Daily Weather History Graph

Search for Another Location

Airport or City:

Astronomy

Jul. 30, 2013 Rise Set
Actual Time 5:29 AM EEST 7:47 PM EEST
Civil Twilight 4:59 AM EEST 8:18 PM EEST
Nautical Twilight 4:21 AM EEST 8:55 PM EEST
Astronomical Twilight 3:40 AM EEST 9:36 PM EEST
Moon No Moon Rise 1:47 PM EEST (7/30)
Length of Visible Light 15h 19m
Length of Day
14h 18m
Last Quarter, 44% of the Moon is Illuminated
Jul 30
Last Quarter
Aug 7
New
Aug 14
First Quarter
Aug 21
Full
Aug 28
Last Quarter

Hourly Weather History & Observations

Time (EEST) Temp. Windchill Dew Point Humidity Pressure Visibility Wind Dir Wind Speed Gust Speed Precip Events Conditions
12:50 AM 46.4 °F 42.4 °F 41.0 °F 81% 30.12 in - NE 8.1 mph - N/A   Clear
1:50 AM 44.6 °F - 37.4 °F 76% 30.12 in - Calm Calm - N/A   Clear
2:50 AM 48.2 °F - 42.8 °F 82% 30.09 in - North 4.6 mph - N/A   Clear
3:00 AM 51 °F - 43 °F 65%  in 9 mi SSE 1.2 mph - -  
3:50 AM 42.8 °F 39.3 °F 39.2 °F 87% 30.09 in - ENE 5.8 mph - N/A   Clear
4:50 AM 48.2 °F - 42.8 °F 82% 30.09 in - ENE 4.6 mph - N/A   Clear
5:50 AM 44.6 °F 40.7 °F 39.2 °F 81% 30.09 in - North 6.9 mph - N/A   Clear
6:50 AM 50.0 °F - 42.8 °F 76% 30.09 in - Variable 2.3 mph - N/A   Clear
7:50 AM 55.4 °F - 41.0 °F 58% 30.06 in - Variable 1.2 mph - N/A   Clear
8:50 AM 59.0 °F - 41.0 °F 51% 30.06 in - North 6.9 mph - N/A   Clear
9:00 AM 62 °F - 43 °F 38%  in 9 mi South 2.3 mph - -  
9:50 AM 62.6 °F - 37.4 °F 39% 30.06 in - North 12.7 mph - N/A   Clear
10:50 AM 62.6 °F - 37.4 °F 39% 30.06 in - NNW 10.4 mph - N/A   Clear
12:50 PM 66.2 °F - 33.8 °F 30% 30.04 in 6.2 mi North 13.8 mph - N/A   Scattered Clouds
1:50 PM 68.0 °F - 32.0 °F 26% 30.04 in 6.2 mi NW 13.8 mph - N/A   Scattered Clouds
2:50 PM 69.8 °F - 32.0 °F 25% 30.01 in 6.2 mi NNW 18.4 mph - N/A   Scattered Clouds
3:00 PM 77 °F - 33 °F 11%  in 9 mi North 5.8 mph - -  
3:50 PM 69.8 °F - 32.0 °F 25% 30.01 in 6.2 mi NNW 20.7 mph - N/A   Partly Cloudy
4:50 PM 68.0 °F - 33.8 °F 28% 30.01 in 6.2 mi North 18.4 mph 32.2 mph N/A   Partly Cloudy
5:50 PM 68.0 °F - 35.6 °F 30% 30.01 in 6.2 mi NNE 17.3 mph - N/A   Partly Cloudy
6:50 PM 62.6 °F - 42.8 °F 48% 30.01 in 6.2 mi NNE 18.4 mph - N/A   Partly Cloudy
7:50 PM 59.0 °F - 41.0 °F 51% 30.04 in - NNE 11.5 mph - N/A   Clear
8:50 PM 53.6 °F - 41.0 °F 62% 30.04 in - NE 10.4 mph - N/A   Clear
9:50 PM 50.0 °F - 39.2 °F 66% 30.04 in - East 5.8 mph - N/A   Clear
10:50 PM 50.0 °F - 39.2 °F 66% 30.04 in - NE 4.6 mph - N/A   Clear
11:50 PM 46.4 °F 45.2 °F 37.4 °F 71% 30.04 in - ENE 3.5 mph - N/A   Clear